Year,Month,Day,Hour,Minute,Value (Times are PST for temperature in C)
2012,06,22,00,00,15.30
2012,06,22,00,01,15.30
2012,06,22,00,02,15.30
2012,06,22,00,03,15.30
2012,06,22,00,04,15.30
2012,06,22,00,05,15.30
2012,06,22,00,06,15.20
2012,06,22,00,07,15.20
2012,06,22,00,08,15.20
2012,06,22,00,09,15.20
2012,06,22,00,10,15.20
2012,06,22,00,11,15.20
2012,06,22,00,12,15.20
2012,06,22,00,13,15.10
2012,06,22,00,14,15.10
2012,06,22,00,15,15.10
2012,06,22,00,16,15.00
2012,06,22,00,17,15.00
2012,06,22,00,18,15.00
2012,06,22,00,19,15.00
2012,06,22,00,20,15.00
2012,06,22,00,21,15.00
2012,06,22,00,22,15.00
2012,06,22,00,23,15.00
2012,06,22,00,24,15.00
2012,06,22,00,25,15.00
2012,06,22,00,26,15.00
2012,06,22,00,27,15.00
2012,06,22,00,28,15.00
2012,06,22,00,29,15.00
2012,06,22,00,30,15.00
2012,06,22,00,31,15.00
2012,06,22,00,32,15.00
2012,06,22,00,33,15.00
2012,06,22,00,34,15.00
2012,06,22,00,35,15.00
2012,06,22,00,36,15.00
2012,06,22,00,37,15.00
2012,06,22,00,38,15.00
2012,06,22,00,39,15.00
2012,06,22,00,40,15.00
2012,06,22,00,41,15.00
2012,06,22,00,42,15.00
2012,06,22,00,43,15.00
2012,06,22,00,44,15.00
2012,06,22,00,45,15.00
2012,06,22,00,46,15.00
2012,06,22,00,47,15.00
2012,06,22,00,48,15.00
2012,06,22,00,49,15.00
2012,06,22,00,50,15.00
2012,06,22,00,51,15.00
2012,06,22,00,52,15.00
2012,06,22,00,53,15.00
2012,06,22,00,54,15.00
2012,06,22,00,55,15.00
2012,06,22,00,56,15.00
2012,06,22,00,57,15.00
2012,06,22,00,58,14.90
2012,06,22,00,59,14.90
2012,06,22,01,00,14.90
2012,06,22,01,01,14.90
2012,06,22,01,02,14.90
2012,06,22,01,03,14.90
2012,06,22,01,04,14.90
2012,06,22,01,05,14.90
2012,06,22,01,06,14.90
2012,06,22,01,07,14.90
2012,06,22,01,08,14.90
2012,06,22,01,09,14.80
2012,06,22,01,10,14.80
2012,06,22,01,11,14.80
2012,06,22,01,12,14.80
2012,06,22,01,13,14.70
2012,06,22,01,14,14.70
2012,06,22,01,15,14.70
2012,06,22,01,16,14.70
2012,06,22,01,17,14.70
2012,06,22,01,18,14.70
2012,06,22,01,19,14.70
2012,06,22,01,20,14.60
2012,06,22,01,21,14.60
2012,06,22,01,22,14.60
2012,06,22,01,23,14.60
2012,06,22,01,24,14.60
2012,06,22,01,25,14.60
2012,06,22,01,26,14.60
2012,06,22,01,27,14.60
2012,06,22,01,28,14.60
2012,06,22,01,29,14.60
2012,06,22,01,30,14.50
2012,06,22,01,31,14.50
2012,06,22,01,32,14.50
2012,06,22,01,33,14.50
2012,06,22,01,34,14.50
2012,06,22,01,35,14.50
2012,06,22,01,36,14.50
2012,06,22,01,37,14.50
2012,06,22,01,38,14.50
2012,06,22,01,39,14.50
2012,06,22,01,40,14.50
2012,06,22,01,41,14.50
2012,06,22,01,42,14.50
2012,06,22,01,43,14.50
2012,06,22,01,44,14.60
2012,06,22,01,45,14.60
2012,06,22,01,46,14.60
2012,06,22,01,47,14.60
2012,06,22,01,48,14.60
2012,06,22,01,49,14.60
2012,06,22,01,50,14.60
2012,06,22,01,51,14.50
2012,06,22,01,52,14.50
2012,06,22,01,53,14.50
2012,06,22,01,54,14.60
2012,06,22,01,55,14.50
2012,06,22,01,56,14.50
2012,06,22,01,57,14.50
2012,06,22,01,58,14.50
2012,06,22,01,59,14.40
2012,06,22,02,00,14.40
2012,06,22,02,01,14.40
2012,06,22,02,02,14.40
2012,06,22,02,03,14.30
2012,06,22,02,04,14.30
2012,06,22,02,05,14.30
2012,06,22,02,06,14.30
2012,06,22,02,07,14.20
2012,06,22,02,08,14.20
2012,06,22,02,09,14.20
2012,06,22,02,10,14.20
2012,06,22,02,11,14.10
2012,06,22,02,12,14.10
2012,06,22,02,13,14.10
2012,06,22,02,14,14.10
2012,06,22,02,15,14.10
2012,06,22,02,16,14.10
2012,06,22,02,17,14.10
2012,06,22,02,18,14.10
2012,06,22,02,19,14.10
2012,06,22,02,20,14.10
2012,06,22,02,21,14.10
2012,06,22,02,22,14.00
2012,06,22,02,23,14.00
2012,06,22,02,24,14.00
2012,06,22,02,25,14.00
2012,06,22,02,26,14.00
2012,06,22,02,27,14.00
2012,06,22,02,28,14.00
2012,06,22,02,29,14.00
2012,06,22,02,30,13.90
2012,06,22,02,31,13.90
2012,06,22,02,32,13.90
2012,06,22,02,33,13.90
2012,06,22,02,34,13.90
2012,06,22,02,35,13.90
2012,06,22,02,36,13.90
2012,06,22,02,37,13.90
2012,06,22,02,38,13.80
2012,06,22,02,39,13.80
2012,06,22,02,40,13.80
2012,06,22,02,41,13.80
2012,06,22,02,42,13.80
2012,06,22,02,43,13.80
2012,06,22,02,44,13.80
2012,06,22,02,45,13.80
2012,06,22,02,46,13.80
2012,06,22,02,47,13.80
2012,06,22,02,48,13.80
2012,06,22,02,49,13.80
2012,06,22,02,50,13.80
2012,06,22,02,51,13.70
2012,06,22,02,52,13.70
2012,06,22,02,53,13.70
2012,06,22,02,54,13.70
2012,06,22,02,55,13.70
2012,06,22,02,56,13.60
2012,06,22,02,57,13.60
2012,06,22,02,58,13.60
2012,06,22,02,59,13.60
2012,06,22,03,00,13.60
2012,06,22,03,01,13.60
2012,06,22,03,02,13.50
2012,06,22,03,06,13.40
2012,06,22,03,07,13.40
2012,06,22,03,08,13.40
2012,06,22,03,09,13.30
2012,06,22,03,10,13.30
2012,06,22,03,11,13.30
2012,06,22,03,12,13.30
2012,06,22,03,13,13.30
2012,06,22,03,14,13.30
2012,06,22,03,15,13.30
2012,06,22,03,16,13.30
2012,06,22,03,17,13.30
2012,06,22,03,18,13.30
2012,06,22,03,19,13.20
2012,06,22,03,20,13.20
2012,06,22,03,21,13.20
2012,06,22,03,22,13.20
2012,06,22,03,23,13.20
2012,06,22,03,24,13.20
2012,06,22,03,25,13.20
2012,06,22,03,26,13.20
2012,06,22,03,27,13.20
2012,06,22,03,28,13.20
2012,06,22,03,29,13.20
2012,06,22,03,30,13.20
2012,06,22,03,31,13.20
2012,06,22,03,32,13.20
2012,06,22,03,33,13.10
2012,06,22,03,34,13.10
2012,06,22,03,35,13.10
2012,06,22,03,36,13.10
2012,06,22,03,37,13.10
2012,06,22,03,38,13.10
2012,06,22,03,39,13.00
2012,06,22,03,40,13.00
2012,06,22,03,41,12.90
2012,06,22,03,42,12.90
2012,06,22,03,43,12.90
2012,06,22,03,44,12.80
2012,06,22,03,45,12.80
2012,06,22,03,46,12.80
2012,06,22,03,47,12.80
2012,06,22,03,48,12.80
2012,06,22,03,49,12.80
2012,06,22,03,50,12.70
2012,06,22,03,51,12.70
2012,06,22,03,52,12.70
2012,06,22,03,53,12.70
2012,06,22,03,54,12.60
2012,06,22,03,55,12.60
2012,06,22,03,56,12.60
2012,06,22,03,57,12.60
2012,06,22,03,58,12.50
2012,06,22,03,59,12.50
2012,06,22,04,00,12.50
2012,06,22,04,01,12.40
2012,06,22,04,02,12.40
2012,06,22,04,03,12.40
2012,06,22,04,04,12.40
2012,06,22,04,05,12.40
2012,06,22,04,06,12.30
2012,06,22,04,07,12.30
2012,06,22,04,08,12.30
2012,06,22,04,09,12.30
2012,06,22,04,10,12.30
2012,06,22,04,11,12.30
2012,06,22,04,12,12.30
2012,06,22,04,13,12.30
2012,06,22,04,14,12.20
2012,06,22,04,15,12.20
2012,06,22,04,16,12.20
2012,06,22,04,17,12.20
2012,06,22,04,18,12.20
2012,06,22,04,19,12.20
2012,06,22,04,20,12.20
2012,06,22,04,21,12.20
2012,06,22,04,22,12.20
2012,06,22,04,23,12.20
2012,06,22,04,24,12.20
2012,06,22,04,25,12.20
2012,06,22,04,26,12.20
2012,06,22,04,27,12.20
2012,06,22,04,28,12.30
2012,06,22,04,29,12.30
2012,06,22,04,30,12.30
2012,06,22,04,31,12.30
2012,06,22,04,32,12.30
2012,06,22,04,33,12.30
2012,06,22,04,34,12.30
2012,06,22,04,35,12.30
2012,06,22,04,36,12.30
2012,06,22,04,37,12.30
2012,06,22,04,38,12.30
2012,06,22,04,39,12.30
2012,06,22,04,40,12.20
2012,06,22,04,41,12.20
2012,06,22,04,42,12.20
2012,06,22,04,43,12.20
2012,06,22,04,44,12.20
2012,06,22,04,45,12.10
2012,06,22,04,46,12.10
2012,06,22,04,47,12.10
2012,06,22,04,48,12.10
2012,06,22,04,49,12.10
2012,06,22,04,50,12.10
2012,06,22,04,51,12.00
2012,06,22,04,52,12.00
2012,06,22,04,53,12.00
2012,06,22,04,54,12.00
2012,06,22,04,55,12.00
2012,06,22,04,56,12.10
2012,06,22,04,57,12.10
2012,06,22,04,58,12.10
2012,06,22,04,59,12.10
2012,06,22,05,00,12.10
2012,06,22,05,01,12.20
2012,06,22,05,02,12.20
2012,06,22,05,03,12.20
2012,06,22,05,04,12.20
2012,06,22,05,05,12.20
2012,06,22,05,06,12.20
2012,06,22,05,07,12.20
2012,06,22,05,08,12.20
2012,06,22,05,09,12.20
2012,06,22,05,10,12.20
2012,06,22,05,11,12.20
2012,06,22,05,12,12.20
2012,06,22,05,13,12.20
2012,06,22,05,14,12.20
2012,06,22,05,15,12.20
2012,06,22,05,16,12.20
2012,06,22,05,17,12.10
2012,06,22,05,18,12.10
2012,06,22,05,19,12.10
2012,06,22,05,20,12.10
2012,06,22,05,21,12.10
2012,06,22,05,22,12.10
2012,06,22,05,23,12.00
2012,06,22,05,24,12.00
2012,06,22,05,25,12.00
2012,06,22,05,26,12.00
2012,06,22,05,27,12.00
2012,06,22,05,28,12.00
2012,06,22,05,29,12.00
2012,06,22,05,30,12.00
2012,06,22,05,31,12.00
2012,06,22,05,32,12.00
2012,06,22,05,33,12.00
2012,06,22,05,34,12.00
2012,06,22,05,35,12.00
2012,06,22,05,36,12.00
2012,06,22,05,37,12.00
2012,06,22,05,38,12.10
2012,06,22,05,39,12.10
2012,06,22,05,40,12.10
2012,06,22,05,41,12.10
2012,06,22,05,42,12.10
2012,06,22,05,43,12.10
2012,06,22,05,44,12.10
2012,06,22,05,45,12.10
2012,06,22,05,46,12.10
2012,06,22,05,47,12.20
2012,06,22,05,48,12.20
2012,06,22,05,49,12.20
2012,06,22,05,50,12.20
2012,06,22,05,51,12.20
2012,06,22,05,52,12.20
2012,06,22,05,53,12.20
2012,06,22,05,54,12.20
2012,06,22,05,55,12.20
2012,06,22,05,56,12.30
2012,06,22,05,57,12.30
2012,06,22,05,58,12.30
2012,06,22,05,59,12.30
2012,06,22,06,00,12.30
2012,06,22,06,01,12.40
2012,06,22,06,02,12.40
2012,06,22,06,03,12.50
2012,06,22,06,04,12.50
2012,06,22,06,05,12.60
2012,06,22,06,06,12.60
2012,06,22,06,07,12.60
2012,06,22,06,08,12.60
2012,06,22,06,09,12.60
2012,06,22,06,10,12.60
2012,06,22,06,11,12.60
2012,06,22,06,12,12.70
2012,06,22,06,13,12.70
2012,06,22,06,14,12.70
2012,06,22,06,15,12.70
2012,06,22,06,16,12.70
2012,06,22,06,17,12.70
2012,06,22,06,18,12.70
2012,06,22,06,19,12.70
2012,06,22,06,20,12.70
2012,06,22,06,21,12.70
2012,06,22,06,22,12.70
2012,06,22,06,23,12.70
2012,06,22,06,24,12.70
2012,06,22,06,25,12.70
2012,06,22,06,26,12.70
2012,06,22,06,27,12.70
2012,06,22,06,28,12.70
2012,06,22,06,29,12.70
2012,06,22,06,30,12.70
2012,06,22,06,31,12.80
2012,06,22,06,32,12.80
2012,06,22,06,33,12.80
2012,06,22,06,34,12.80
2012,06,22,06,35,12.80
2012,06,22,06,36,12.90
2012,06,22,06,37,12.90
2012,06,22,06,38,12.90
2012,06,22,06,39,12.90
2012,06,22,06,40,12.90
2012,06,22,06,41,12.90
2012,06,22,06,42,13.00
2012,06,22,06,43,13.00
2012,06,22,06,44,13.00
2012,06,22,06,45,13.10
2012,06,22,06,46,13.10
2012,06,22,06,47,13.10
2012,06,22,06,48,13.10
2012,06,22,06,49,13.10
2012,06,22,06,50,13.20
2012,06,22,06,51,13.20
2012,06,22,06,52,13.20
2012,06,22,06,53,13.20
2012,06,22,06,54,13.20
2012,06,22,06,55,13.30
2012,06,22,06,56,13.30
2012,06,22,06,57,13.30
2012,06,22,06,58,13.30
2012,06,22,06,59,13.40
2012,06,22,07,00,13.40
2012,06,22,07,01,13.50
2012,06,22,07,02,13.50
2012,06,22,07,03,13.60
2012,06,22,07,04,13.60
2012,06,22,07,05,13.60
2012,06,22,07,06,13.70
2012,06,22,07,07,13.70
2012,06,22,07,08,13.70
2012,06,22,07,09,13.70
2012,06,22,07,10,13.80
2012,06,22,07,11,13.80
2012,06,22,07,12,13.80
2012,06,22,07,13,13.80
2012,06,22,07,14,13.80
2012,06,22,07,15,13.90
2012,06,22,07,16,13.90
2012,06,22,07,17,14.00
2012,06,22,07,18,14.00
2012,06,22,07,19,14.00
2012,06,22,07,20,14.10
2012,06,22,07,21,14.10
2012,06,22,07,22,14.20
2012,06,22,07,23,14.20
2012,06,22,07,24,14.20
2012,06,22,07,25,14.20
2012,06,22,07,26,14.30
2012,06,22,07,27,14.30
2012,06,22,07,28,14.30
2012,06,22,07,29,14.30
2012,06,22,07,30,14.40
2012,06,22,07,31,14.40
2012,06,22,07,32,14.50
2012,06,22,07,33,14.50
2012,06,22,07,34,14.50
2012,06,22,07,35,14.60
2012,06,22,07,36,14.60
2012,06,22,07,37,14.70
2012,06,22,07,38,14.70
2012,06,22,07,39,14.70
2012,06,22,07,40,14.80
2012,06,22,07,41,14.80
2012,06,22,07,42,14.80
2012,06,22,07,43,14.80
2012,06,22,07,44,14.90
2012,06,22,07,45,14.90
2012,06,22,07,46,14.90
2012,06,22,07,47,15.00
2012,06,22,07,48,15.00
2012,06,22,07,49,15.00
2012,06,22,07,50,15.00
2012,06,22,07,51,15.00
2012,06,22,07,52,15.00
2012,06,22,07,53,15.00
2012,06,22,07,54,15.00
2012,06,22,07,55,15.00
2012,06,22,07,56,15.00
2012,06,22,07,57,15.00
2012,06,22,07,58,15.00
2012,06,22,07,59,15.00
2012,06,22,08,00,15.00
2012,06,22,08,01,15.00
2012,06,22,08,02,15.00
2012,06,22,08,03,15.00
2012,06,22,08,04,15.00
2012,06,22,08,05,15.10
2012,06,22,08,06,15.10
2012,06,22,08,07,15.10
2012,06,22,08,08,15.10
2012,06,22,08,09,15.20
2012,06,22,08,10,15.20
2012,06,22,08,11,15.20
2012,06,22,08,12,15.20
2012,06,22,08,13,15.20
2012,06,22,08,14,15.30
2012,06,22,08,15,15.30
2012,06,22,08,16,15.30
2012,06,22,08,17,15.30
2012,06,22,08,18,15.30
2012,06,22,08,19,15.30
2012,06,22,08,20,15.30
2012,06,22,08,21,15.30
2012,06,22,08,22,15.30
2012,06,22,08,23,15.30
2012,06,22,08,24,15.40
2012,06,22,08,25,15.40
2012,06,22,08,26,15.40
2012,06,22,08,27,15.40
2012,06,22,08,28,15.40
2012,06,22,08,29,15.40
2012,06,22,08,30,15.40
2012,06,22,08,31,15.40
2012,06,22,08,32,15.50
2012,06,22,08,33,15.50
2012,06,22,08,34,15.50
2012,06,22,08,35,15.50
2012,06,22,08,36,15.60
2012,06,22,08,37,15.60
2012,06,22,08,38,15.60
2012,06,22,08,39,15.60
2012,06,22,08,40,15.70
2012,06,22,08,41,15.70
2012,06,22,08,42,15.70
2012,06,22,08,43,15.80
2012,06,22,08,44,15.80
2012,06,22,08,45,15.80
2012,06,22,08,46,15.90
2012,06,22,08,47,15.90
2012,06,22,08,48,15.90
2012,06,22,08,49,16.00
2012,06,22,08,50,16.00
2012,06,22,08,51,16.10
2012,06,22,08,52,16.10
2012,06,22,08,53,16.10
2012,06,22,08,54,16.20
2012,06,22,08,55,16.20
2012,06,22,08,56,16.20
2012,06,22,08,57,16.30
2012,06,22,08,58,16.30
2012,06,22,08,59,16.30
2012,06,22,09,00,16.40
2012,06,22,09,01,16.40
2012,06,22,09,02,16.40
2012,06,22,09,03,16.50
2012,06,22,09,04,16.50
2012,06,22,09,05,16.60
2012,06,22,09,06,16.60
2012,06,22,09,07,16.60
2012,06,22,09,08,16.60
2012,06,22,09,09,16.70
2012,06,22,09,10,16.70
2012,06,22,09,11,16.70
2012,06,22,09,12,16.70
2012,06,22,09,13,16.80
2012,06,22,09,14,16.80
2012,06,22,09,15,16.80
2012,06,22,09,16,16.80
2012,06,22,09,17,16.80
2012,06,22,09,18,16.90
2012,06,22,09,19,16.90
2012,06,22,09,20,16.90
2012,06,22,09,21,16.90
2012,06,22,09,22,16.90
2012,06,22,09,23,16.90
2012,06,22,09,24,16.90
2012,06,22,09,25,16.90
2012,06,22,09,26,16.80
2012,06,22,09,27,16.80
2012,06,22,09,28,16.80
2012,06,22,09,29,16.80
2012,06,22,09,30,16.80
2012,06,22,09,31,16.80
2012,06,22,09,32,16.80
2012,06,22,09,33,16.80
2012,06,22,09,34,16.70
2012,06,22,09,35,16.70
2012,06,22,09,36,16.80
2012,06,22,09,37,16.80
2012,06,22,09,38,16.80
2012,06,22,09,39,16.80
2012,06,22,09,40,16.80
2012,06,22,09,41,16.80
2012,06,22,09,42,16.80
2012,06,22,09,43,16.80
2012,06,22,09,44,16.80
2012,06,22,09,45,16.90
2012,06,22,09,46,16.90
2012,06,22,09,47,16.90
2012,06,22,09,48,16.90
2012,06,22,09,49,16.90
2012,06,22,09,50,16.90
2012,06,22,09,51,16.90
2012,06,22,09,52,16.90
2012,06,22,09,53,17.00
2012,06,22,09,54,17.00
2012,06,22,09,55,17.00
2012,06,22,09,56,17.10
2012,06,22,09,57,17.10
2012,06,22,09,58,17.10
2012,06,22,09,59,17.10
2012,06,22,10,00,17.10
2012,06,22,10,01,17.10
2012,06,22,10,02,17.10
2012,06,22,10,03,17.10
2012,06,22,10,04,17.10
2012,06,22,10,05,17.10
2012,06,22,10,06,17.10
2012,06,22,10,07,17.10
2012,06,22,10,08,17.10
2012,06,22,10,09,17.10
2012,06,22,10,10,17.10
2012,06,22,10,11,17.10
2012,06,22,10,12,17.10
2012,06,22,10,13,17.10
2012,06,22,10,14,17.10
2012,06,22,10,15,17.10
2012,06,22,10,16,17.10
2012,06,22,10,17,17.10
2012,06,22,10,18,17.20
2012,06,22,10,19,17.20
2012,06,22,10,20,17.20
2012,06,22,10,21,17.20
2012,06,22,10,22,17.20
2012,06,22,10,23,17.20
2012,06,22,10,24,17.20
2012,06,22,10,25,17.20
2012,06,22,10,26,17.20
2012,06,22,10,27,17.20
2012,06,22,10,28,17.30
2012,06,22,10,29,17.30
2012,06,22,10,30,17.30
2012,06,22,10,31,17.30
2012,06,22,10,32,17.40
2012,06,22,10,33,17.40
2012,06,22,10,34,17.40
2012,06,22,10,35,17.40
2012,06,22,10,36,17.40
2012,06,22,10,37,17.40
2012,06,22,10,38,17.40
2012,06,22,10,39,17.40
2012,06,22,10,40,17.40
2012,06,22,10,41,17.50
2012,06,22,10,42,17.50
2012,06,22,10,43,17.50
2012,06,22,10,44,17.60
2012,06,22,10,45,17.60
2012,06,22,10,46,17.60
2012,06,22,10,47,17.60
2012,06,22,10,48,17.60
2012,06,22,10,49,17.60
2012,06,22,10,50,17.60
2012,06,22,10,51,17.60
2012,06,22,10,52,17.60
2012,06,22,10,53,17.60
2012,06,22,10,54,17.60
2012,06,22,10,55,17.60
2012,06,22,10,56,17.60
2012,06,22,10,57,17.60
2012,06,22,10,58,17.60
2012,06,22,10,59,17.60
2012,06,22,11,00,17.50
2012,06,22,11,01,17.50
2012,06,22,11,02,17.50
2012,06,22,11,03,17.50
2012,06,22,11,04,17.50
2012,06,22,11,05,17.50
2012,06,22,11,06,17.50
2012,06,22,11,07,17.60
2012,06,22,11,08,17.50
2012,06,22,11,09,17.50
2012,06,22,11,10,17.50
2012,06,22,11,11,17.40
2012,06,22,11,12,17.40
2012,06,22,11,13,17.40
2012,06,22,11,14,17.40
2012,06,22,11,15,17.30
2012,06,22,11,16,17.30
2012,06,22,11,17,17.30
2012,06,22,11,18,17.30
2012,06,22,11,19,17.30
2012,06,22,11,20,17.30
2012,06,22,11,21,17.30
2012,06,22,11,22,17.30
2012,06,22,11,23,17.30
2012,06,22,11,24,17.30
2012,06,22,11,25,17.30
2012,06,22,11,26,17.30
2012,06,22,11,27,17.20
2012,06,22,11,28,17.20
2012,06,22,11,29,17.10
2012,06,22,11,30,17.10
2012,06,22,11,31,17.00
2012,06,22,11,32,16.90
2012,06,22,11,33,16.90
2012,06,22,11,34,16.90
2012,06,22,11,35,16.90
2012,06,22,11,36,16.80
2012,06,22,11,37,16.80
2012,06,22,11,38,16.80
2012,06,22,11,39,16.80
2012,06,22,11,40,16.80
2012,06,22,11,41,16.70
2012,06,22,11,42,16.70
2012,06,22,11,43,16.70
2012,06,22,11,44,16.70
2012,06,22,11,45,16.70
2012,06,22,11,46,16.70
2012,06,22,11,47,16.70
2012,06,22,11,48,16.70
2012,06,22,11,49,16.60
2012,06,22,11,50,16.60
2012,06,22,11,51,16.60
2012,06,22,11,52,16.60
2012,06,22,11,53,16.70
2012,06,22,11,54,16.60
2012,06,22,11,55,16.60
2012,06,22,11,56,16.60
2012,06,22,11,57,16.60
2012,06,22,11,58,16.60
2012,06,22,11,59,16.60
2012,06,22,12,00,16.60
2012,06,22,12,01,16.60
2012,06,22,12,02,16.60
2012,06,22,12,03,16.60
2012,06,22,12,04,16.60
2012,06,22,12,05,16.60
2012,06,22,12,06,16.60
2012,06,22,12,07,16.50
2012,06,22,12,08,16.50
2012,06,22,12,09,16.50
2012,06,22,12,10,16.40
2012,06,22,12,11,16.40
2012,06,22,12,12,16.40
2012,06,22,12,13,16.30
2012,06,22,12,14,16.30
2012,06,22,12,15,16.30
2012,06,22,12,16,16.20
2012,06,22,12,17,16.20
2012,06,22,12,18,16.20
2012,06,22,12,19,16.20
2012,06,22,12,20,16.20
2012,06,22,12,21,16.10
2012,06,22,12,22,16.10
2012,06,22,12,23,16.10
2012,06,22,12,24,16.10
2012,06,22,12,25,16.00
2012,06,22,12,26,16.00
2012,06,22,12,27,16.00
2012,06,22,12,28,16.00
2012,06,22,12,29,16.00
2012,06,22,12,30,16.00
2012,06,22,12,31,16.00
2012,06,22,12,32,16.00
2012,06,22,12,33,16.00
2012,06,22,12,34,15.90
2012,06,22,12,35,15.90
2012,06,22,12,36,15.90
2012,06,22,12,37,15.90
2012,06,22,12,38,15.80
2012,06,22,12,39,15.80
2012,06,22,12,40,15.80
2012,06,22,12,41,15.80
2012,06,22,12,42,15.80
2012,06,22,12,43,15.80
2012,06,22,12,44,15.80
2012,06,22,12,45,15.80
2012,06,22,12,46,15.80
2012,06,22,12,47,15.80
2012,06,22,12,48,15.80
2012,06,22,12,49,15.70
2012,06,22,12,50,15.70
2012,06,22,12,51,15.70
2012,06,22,12,52,15.70
2012,06,22,12,53,15.70
2012,06,22,12,54,15.70
2012,06,22,12,55,15.70
2012,06,22,12,56,15.70
2012,06,22,12,57,15.70
2012,06,22,12,58,15.60
2012,06,22,12,59,15.60
2012,06,22,13,00,15.60
2012,06,22,13,01,15.60
2012,06,22,13,02,15.60
2012,06,22,13,03,15.60
2012,06,22,13,04,15.60
2012,06,22,13,05,15.60
2012,06,22,13,06,15.50
2012,06,22,13,07,15.50
2012,06,22,13,08,15.40
2012,06,22,13,09,15.30
2012,06,22,13,10,15.20
2012,06,22,13,11,15.20
2012,06,22,13,12,15.10
2012,06,22,13,13,15.00
2012,06,22,13,14,15.00
2012,06,22,13,15,15.00
2012,06,22,13,16,15.00
2012,06,22,13,17,15.00
2012,06,22,13,18,15.00
2012,06,22,13,19,15.00
2012,06,22,13,20,15.00
2012,06,22,13,21,15.00
2012,06,22,13,22,15.00
2012,06,22,13,23,15.00
2012,06,22,13,24,15.00
2012,06,22,13,25,15.00
2012,06,22,13,26,15.00
2012,06,22,13,27,15.00
2012,06,22,13,28,15.00
2012,06,22,13,29,15.00
2012,06,22,13,30,15.00
2012,06,22,13,31,15.00
2012,06,22,13,32,15.00
2012,06,22,13,33,15.00
2012,06,22,13,34,15.00
2012,06,22,13,35,15.00
2012,06,22,13,36,15.00
2012,06,22,13,37,15.00
2012,06,22,13,38,15.00
2012,06,22,13,39,15.00
2012,06,22,13,40,15.00
2012,06,22,13,41,15.00
2012,06,22,13,42,15.00
2012,06,22,13,43,15.00
2012,06,22,13,44,15.00
2012,06,22,13,45,15.00
2012,06,22,13,46,14.90
2012,06,22,13,47,14.90
2012,06,22,13,48,14.90
2012,06,22,13,49,14.90
2012,06,22,13,50,14.80
2012,06,22,13,51,14.80
2012,06,22,13,52,14.80
2012,06,22,13,53,14.80
2012,06,22,13,54,14.80
2012,06,22,13,55,14.80
2012,06,22,13,56,14.80
2012,06,22,13,57,14.80
2012,06,22,13,58,14.80
2012,06,22,13,59,14.80
2012,06,22,14,00,14.80
2012,06,22,14,01,14.80
2012,06,22,14,02,14.80
2012,06,22,14,03,14.80
2012,06,22,14,04,14.80
2012,06,22,14,05,14.80
2012,06,22,14,06,14.70
2012,06,22,14,07,14.70
2012,06,22,14,08,14.70
2012,06,22,14,09,14.70
2012,06,22,14,10,14.70
2012,06,22,14,11,14.70
2012,06,22,14,12,14.70
2012,06,22,14,13,14.70
2012,06,22,14,14,14.70
2012,06,22,14,15,14.70
2012,06,22,14,16,14.70
2012,06,22,14,17,14.70
2012,06,22,14,18,14.70
2012,06,22,14,19,14.70
2012,06,22,14,20,14.60
2012,06,22,14,21,14.60
2012,06,22,14,22,14.60
2012,06,22,14,23,14.60
2012,06,22,14,24,14.60
2012,06,22,14,25,14.60
2012,06,22,14,26,14.60
2012,06,22,14,27,14.60
2012,06,22,14,28,14.60
2012,06,22,14,29,14.60
2012,06,22,14,30,14.60
2012,06,22,14,31,14.60
2012,06,22,14,32,14.60
2012,06,22,14,33,14.60
2012,06,22,14,34,14.60
2012,06,22,14,35,14.60
2012,06,22,14,36,14.50
2012,06,22,14,37,14.40
2012,06,22,14,38,14.40
2012,06,22,14,39,14.40
2012,06,22,14,40,14.30
2012,06,22,14,41,14.30
2012,06,22,14,42,14.30
2012,06,22,14,43,14.30
2012,06,22,14,44,14.20
2012,06,22,14,45,14.20
2012,06,22,14,46,14.20
2012,06,22,14,47,14.20
2012,06,22,14,48,14.10
2012,06,22,14,49,14.10
2012,06,22,14,50,14.10
2012,06,22,14,51,14.10
2012,06,22,14,52,14.10
2012,06,22,14,53,14.10
2012,06,22,14,54,14.10
2012,06,22,14,55,14.00
2012,06,22,14,56,14.00
2012,06,22,14,57,14.00
2012,06,22,14,58,14.00
2012,06,22,14,59,13.90
2012,06,22,15,00,13.90
2012,06,22,15,01,13.90
2012,06,22,15,02,13.80
2012,06,22,15,03,13.80
2012,06,22,15,04,13.80
2012,06,22,15,05,13.80
2012,06,22,15,06,13.70
2012,06,22,15,07,13.70
2012,06,22,15,08,13.80
2012,06,22,15,09,13.80
2012,06,22,15,10,13.70
2012,06,22,15,11,13.70
2012,06,22,15,12,13.70
2012,06,22,15,13,13.70
2012,06,22,15,14,13.70
2012,06,22,15,15,13.70
2012,06,22,15,16,13.70
2012,06,22,15,17,13.60
2012,06,22,15,18,13.60
2012,06,22,15,19,13.60
2012,06,22,15,20,13.60
2012,06,22,15,21,13.60
2012,06,22,15,22,13.70
2012,06,22,15,23,13.70
2012,06,22,15,24,13.70
2012,06,22,15,25,13.70
2012,06,22,15,26,13.60
2012,06,22,15,27,13.60
2012,06,22,15,28,13.60
2012,06,22,15,29,13.60
2012,06,22,15,30,13.60
2012,06,22,15,31,13.60
2012,06,22,15,32,13.60
2012,06,22,15,33,13.60
2012,06,22,15,34,13.60
2012,06,22,15,35,13.60
2012,06,22,15,36,13.60
2012,06,22,15,37,13.60
2012,06,22,15,38,13.60
2012,06,22,15,39,13.60
2012,06,22,15,40,13.70
2012,06,22,15,41,13.70
2012,06,22,15,42,13.70
2012,06,22,15,43,13.70
2012,06,22,15,44,13.70
2012,06,22,15,45,13.70
2012,06,22,15,46,13.70
2012,06,22,15,47,13.70
2012,06,22,15,48,13.70
2012,06,22,15,49,13.70
2012,06,22,15,50,13.70
2012,06,22,15,51,13.70
2012,06,22,15,52,13.70
2012,06,22,15,53,13.80
2012,06,22,15,54,13.80
2012,06,22,15,55,13.80
2012,06,22,15,56,13.80
2012,06,22,15,57,13.80
2012,06,22,15,58,13.90
2012,06,22,15,59,13.90
2012,06,22,16,00,13.90
2012,06,22,16,01,13.90
2012,06,22,16,02,13.90
2012,06,22,16,03,13.90
2012,06,22,16,04,13.90
2012,06,22,16,05,13.90
2012,06,22,16,06,13.90
2012,06,22,16,07,13.90
2012,06,22,16,08,13.90
2012,06,22,16,09,13.90
2012,06,22,16,10,13.90
2012,06,22,16,11,13.90
2012,06,22,16,12,14.00
2012,06,22,16,13,14.00
2012,06,22,16,14,13.90
2012,06,22,16,15,13.90
2012,06,22,16,16,13.90
2012,06,22,16,17,13.90
2012,06,22,16,18,13.90
2012,06,22,16,19,13.90
2012,06,22,16,20,13.90
2012,06,22,16,21,13.90
2012,06,22,16,22,13.90
2012,06,22,16,23,13.90
2012,06,22,16,24,13.90
2012,06,22,16,25,13.90
2012,06,22,16,26,13.90
2012,06,22,16,27,13.90
2012,06,22,16,28,13.90
2012,06,22,16,29,14.00
2012,06,22,16,30,14.00
2012,06,22,16,31,14.00
2012,06,22,16,32,14.00
2012,06,22,16,33,14.00
2012,06,22,16,34,14.10
2012,06,22,16,35,14.10
2012,06,22,16,36,14.10
2012,06,22,16,37,14.10
2012,06,22,16,38,14.10
2012,06,22,16,39,14.10
2012,06,22,16,40,14.10
2012,06,22,16,41,14.10
2012,06,22,16,42,14.10
2012,06,22,16,43,14.10
2012,06,22,16,44,14.10
2012,06,22,16,45,14.20
2012,06,22,16,46,14.20
2012,06,22,16,47,14.20
2012,06,22,16,48,14.20
2012,06,22,16,49,14.20
2012,06,22,16,50,14.10
2012,06,22,16,51,14.10
2012,06,22,16,52,14.10
2012,06,22,16,53,14.10
2012,06,22,16,54,14.10
2012,06,22,16,55,14.00
2012,06,22,16,56,14.00
2012,06,22,16,57,14.00
2012,06,22,16,58,14.00
2012,06,22,16,59,14.00
2012,06,22,17,00,14.00
2012,06,22,17,01,14.00
2012,06,22,17,02,14.00
2012,06,22,17,03,14.00
2012,06,22,17,04,14.00
2012,06,22,17,05,14.00
2012,06,22,17,06,14.00
2012,06,22,17,07,14.00
2012,06,22,17,08,14.00
2012,06,22,17,09,13.90
2012,06,22,17,10,13.90
2012,06,22,17,11,13.90
2012,06,22,17,12,13.90
2012,06,22,17,13,13.90
2012,06,22,17,14,13.90
2012,06,22,17,15,13.90
2012,06,22,17,16,13.90
2012,06,22,17,17,13.80
2012,06,22,17,18,13.80
2012,06,22,17,19,13.80
2012,06,22,17,20,13.80
2012,06,22,17,21,13.80
2012,06,22,17,22,13.80